Regional Weather Roundup
Issued by NWS

Home | Current Version | Previous Version | Text Only | Print | Product List | Glossary Off
Versions: 1 2 3 4 5 6 7 8 9 10 11 12 13 14 15 16 17 18 19 20 21 22 23 24 25 26 27 28 29 30 31 32 33 34 35 36 37 38 39 40 41 42 43 44 45 46 47 48 49 50

000
ASUS43 KMKX 201400
RWRWI

WISCONSIN REGIONAL WEATHER ROUNDUP
NATIONAL WEATHER SERVICE MILWAUKEE/SULLIVAN WI
900 AM CDT SUN APR 20 2014

NOTE: "FAIR" INDICATES FEW OR NO CLOUDS BELOW 12,000 FEET WITH NO
SIGNIFICANT WEATHER AND/OR OBSTRUCTIONS TO VISIBILITY.

WIZ001-002-006>008-014>016-023>028-201500-
NORTHWEST WISCONSIN

CITY           SKY/WX    TMP DP  RH WIND       PRES   REMARKS
SUPERIOR ARPT  SUNNY     36  33  88 SW3       30.06F
ASHLAND        SUNNY     46  43  89 SW5       30.06R
HAYWARD        CLOUDY    47  44  90 CALM      30.05F FOG
SIREN          SUNNY     42  42  99 CALM      30.06S FOG
RICE LAKE      FOG       47  46  96 CALM      30.07F VSB 3/4
LADYSMITH      PTSUNNY   53  48  82 CALM      30.07S
EAU CLAIRE     CLOUDY    58  51  78 SW7       30.05S
MENOMONIE      CLOUDY    50  49  95 CALM      30.05S FOG
NEW RICHMOND   MOSUNNY   49  49 100 CALM      30.05F FOG
OSCEOLA        FOG       48  48 100 CALM      30.07F VSB 1/2
$$

WIZ003>005-009-010-017-018-201500-
NORTH CENTRAL WISCONSIN

CITY           SKY/WX    TMP DP  RH WIND       PRES   REMARKS
WOODRUFF       PTSUNNY   52  44  74 S6        30.07F
RHINELANDER    CLOUDY    48  40  73 SW7       30.08S
EAGLE RIVER    CLOUDY    43  41  95 CALM      30.07S FOG
LAND O LAKES   PTSUNNY   49  39  69 S3        30.07F
PHILLIPS       MOSUNNY   52  45  77 CALM      30.06S
TOMAHAWK       CLOUDY    46  41  84 CALM      30.08S
MEDFORD        CLOUDY    51  44  78 S6        30.07S
MERRILL        LGT RAIN  50  45  84 S36G70    30.09R
$$

WIZ029-030-035-036-043>047-201500-
CENTRAL WISCONSIN

CITY           SKY/WX    TMP DP  RH WIND       PRES   REMARKS
WAUSAU         LGT RAIN  51  43  74 S10       30.07S
MOSINEE        LGT RAIN  48  45  87 S10       30.11R
MARSHFIELD     LGT RAIN  52  48  86 S8        30.08F
STEVENS POINT  LGT RAIN  52  39  61 S9        30.12R
WAUPACA        CLOUDY    54  41  62 CALM      30.13R
WAUTOMA        NOT AVBL
WISC RAPIDS    RAIN      51  48  89 S5        30.12S FOG
CAMP DOUGLAS   NOT AVBL
$$

WIZ011>013-019>022-031-037>040-048>050-201500-
NORTHEAST WISCONSIN

CITY           SKY/WX    TMP DP  RH WIND       PRES   REMARKS
ANTIGO         RAIN      46  43  89 S6        30.10S
STURGEON BAY   CLOUDY    39  34  81 S13       30.17S WCI  32
GREEN BAY      CLOUDY    49  43  80 S10       30.13F
MANITOWOC      NOT AVBL
APPLETON       CLOUDY    48  43  81 SE8       30.16R
CLINTONVILLE   CLOUDY    50  43  76 S3        30.12S
OSHKOSH        CLOUDY    51  40  65 S12       30.13F
$$

WIZ032>034-041-042-053>061-201500-
SOUTHWEST WISCONSIN

CITY           SKY/WX    TMP DP  RH WIND       PRES   REMARKS
LA CROSSE      CLOUDY    53  51  93 CALM      30.08F
SPARTA         CLOUDY    58  41  53 CALM      30.11R
VIROQUA        CLOUDY    55  44  67 CALM      30.10R
BOSCOBEL       PTSUNNY   64  40  41 S9        30.11S
PRAIRIE DU CHI CLOUDY    61  40  45 S6        30.10R
PLATTEVILLE    FAIR      59  39  47 S14       30.14S
$$

WIZ056-057-062-063-064-067-068-201500-
SOUTH CENTRAL WISCONSIN

CITY           SKY/WX    TMP DP  RH WIND       PRES   REMARKS
BARABOO/DELLS  CLOUDY    56  38  49 S10G18    30.11F
LONE ROCK      NOT AVBL
WATERTOWN      CLOUDY    52  39  62 S8        30.16F
MADISON        PTSUNNY   57  40  52 S12       30.14F
MIDDLETON      CLOUDY    57  37  48 S3        30.15R
MONROE         CLOUDY    56  39  53 S14       30.14F
JANESVILLE     PTSUNNY   57  36  44 S12G17    30.17S
$$

WIZ051-052-058>065-066-070>072-201500-
SOUTHEAST WISCONSIN

CITY           SKY/WX    TMP DP  RH WIND       PRES   REMARKS
MILWAUKEE      CLOUDY    54  34  46 S10       30.20F
WAUKESHA       SUNNY     54  36  50 S7        30.20S
MILWAUKEE/TIMM CLOUDY    54  34  47 S7        30.19F
RACINE         PTSUNNY   51  37  58 S8        30.21F
BURLINGTON     PTSUNNY   54  36  50 SW7       30.19F
KENOSHA        CLOUDY    56  34  43 S10       30.20F
FOND DU LAC    CLOUDY    54  39  57 S12       30.14F
SHEBOYGAN      CLOUDY    45  35  68 S7        30.17F
WEST BEND      CLOUDY    52  34  50 S8        30.17F
JUNEAU         CLOUDY    52  35  52 S13       30.17F
$$

LSZ147-162-201500-
LAKE SUPERIOR

STATION/POSITION TIME  TEMP    WIND        PRES    WAVE
                       AIR SEA DIR/SP/G            HT/PER
                 (UTC) (F)     (DEG/KT/KT) (MB)    (FT/S)
DEVILS ISLAND    1300   34     250/ 10/ 11 1018.5R
PORT WING        1300   33     300/  3/  3 1018.3
SAXON HARBOR     1300             CALM     1017.6S
$$

LMZ867-665-643>646-201500-
LAKE MICHIGAN

STATION/POSITION TIME  TEMP    WIND        PRES    WAVE
                       AIR SEA DIR/SP/G            HT/PER
                 (UTC) (F)     (DEG/KT/KT) (MB)    (FT/S)
NORTHPORT PIER   1300   39     160/ 10/ 17 1021.3S
SISTER BAY       1309   37     200/ 22/ 31   N/A
KEWAUNEE LAKESHO 1300   38     180/ 15/ 17 1022.9R
SHEBOYGAN LAKESH 1300   40     170/ 14/ 16 1023.0F
PORT WASHINGTON  1300   42     180/  7/ 10 1023.0F
MILWAUKEE LAKESH 1300   42     150/  9/ 10   N/A
KENOSHA   LAKESH 1300   44     170/  9/ 10   N/A
$$

TC  - TEMPERATURE IN CELSIUS
VSB - VISIBILITY IN STATUTE MILES
WCI - WIND CHILL INDEX
HX  - HEAT INDEX




USA.gov is the U.S. government's official web portal to all federal, state and local government web resources and services.